Regional Weather Roundup
Issued by NWS Dallas/Fort Worth, TX

Home | Current Version | Previous Version | Text Only | Print | Product List | Glossary On
Versions: 1 2 3 4 5 6 7 8 9 10 11 12 13 14 15 16 17 18 19 20 21 22 23 24 25 26 27 28 29 30 31 32 33 34 35 36 37 38 39 40 41 42 43 44 45 46 47 48 49 50
000
ASUS44 KFWD 212015
RWRFWD
NORTH TEXAS HOURLY WEATHER ROUNDUP
NATIONAL WEATHER SERVICE FORT WORTH TX
300 PM CDT SAT OCT 21 2017

NOTE: "FAIR" INDICATES FEW OR NO CLOUDS BELOW 12,000 FEET WITH NO
SIGNIFICANT WEATHER AND/OR OBSTRUCTIONS TO VISIBILITY.

TXZ118-119-212100-
DALLAS/FORT WORTH METROPLEX

CITY           SKY/WX    TMP DP  RH WIND       PRES   REMARKS
DFW AIRPORT    CLOUDY    87  65  47 S23G30    29.82F
DALLAS LOVE    PTSUNNY   87  64  46 S12G21    29.84F
FTW MEACHAM    CLOUDY    87  68  52 S20G28    29.83F HX  90
DAL-EXECUTIVE  PTSUNNY   86  67  52 S9G20     29.84F
FTW-ALLIANCE   CLOUDY    84  66  54 S14G22    29.83F
FTW-SPINKS     MOSUNNY   86  64  48 S15G23    29.85F
ARLINGTON      PTSUNNY   85  66  53 S18G26    29.84F
GRAND PRAIRIE  SUNNY     84  63  48 S16G22    29.85F
ADDISON        PTSUNNY   84  64  51 S10G22    29.86F
MESQUITE       PTSUNNY   86  63  45 S16       29.86F
LANCASTER      PTSUNNY   85  66  52 S13G21    29.86F
$$

TXZ091>094-102>105-117-120-121-131>134-212100-
NORTH CENTRAL TEXAS

CITY           SKY/WX    TMP DP  RH WIND       PRES   REMARKS
SHRMAN/DENISON PTSUNNY   82  67  61 S15       29.86F
GAINESVILLE    CLOUDY    79  65  62 S15       29.87S
BOWIE          PTSUNNY   81  66  60 S15G24    29.82F
BRIDGEPORT     PTSUNNY   82  65  56 S14G20    29.84F
DECATUR        MOSUNNY   82  66  59 S15       29.83F
DENTON         CLOUDY    83  66  56 S18G26    29.83F
MCKINNEY       CLOUDY    84  68  58 S20G25    29.85F
BONHAM         CLOUDY   N/A N/A N/A S17       29.88F
GREENVILLE     CLOUDY    86  64  48 SE15      29.88F
ROCKWALL       PTSUNNY   84  66  54 S16G24    29.86F
TERRELL        MOSUNNY   87  65  47 S15G26    29.87F
WAXAHACHIE     PTSUNNY   86  66  52 S15G22    29.86F
CLEBURNE       PTSUNNY   86  66  51 S15G24    29.85F
GRANBURY       PTSUNNY   87  64  46 SE16G23   29.83F
$$

TXZ083>090-098>101-113>116-127>130-139>142-154-155-212100-
WESTERN NORTH TEXAS

CITY           SKY/WX    TMP DP  RH WIND       PRES   REMARKS
WICHITA FALLS  LGT RAIN  82  65  56 S17G23    29.79F
WF-KICKAPOO    PTSUNNY   82  65  56 S18G24    29.81F
VERNON         MOSUNNY   88  56  34 S17       29.77F
ABILENE        SUNNY     83  63  50 S23G30    29.82F
ABILENE-DYESS  MOSUNNY   85  65  51 S18G28    29.81F
GRAHAM         MOSUNNY   84  65  51 S9G25     29.80F
BRECKENRIDGE   PTSUNNY   87  61  41 SW17      29.81F HAZE
CISCO          MOSUNNY   84  64  51 SW18G25   29.85S
EASTLAND       CLOUDY    84  64  50 S17G24    29.83F
RANGER         MOSUNNY   82  63  52 SW16G23   29.84F
MINERAL WELLS  PTSUNNY   87  64  46 S17G25    29.81F
STEPHENVILLE   MOSUNNY   85  63  46 S12G25    29.87F
COMANCHE       MOSUNNY   86  64  46 S16G22    29.84F
BROWNWOOD      SUNNY     86  63  45 S16G23    29.84F
COLEMAN        PTSUNNY   83  61  46 S17G29    29.86S
$$

TXZ143>147-156>162-174-175-212100-
CENTRAL TEXAS

CITY           SKY/WX    TMP DP  RH WIND       PRES   REMARKS
WACO           PTSUNNY   88  64  44 S17       29.85F
WACO-TSTC      PTSUNNY   90  63  40 S16G24    29.86F HX  90
WACO-MCGREGOR  PTSUNNY   88  66  48 S14G23    29.86F HX  90
HILLSBORO      CLOUDY    87  65  48 S22       29.87S
CORSICANA      LGT RAIN  85  68  56 S9        29.87F
MEXIA          PTSUNNY   85  65  50 S14G21    29.86F
HEARNE         PTSUNNY   87  70  55 S12       29.87F HX  92
CAMERON        PTSUNNY   89  67  48 S12G22    29.86F HX  92
TEMPLE         MOSUNNY   89  66  46 S23       29.85F HX  91
KILLEEN        MOSUNNY   85  64  48 S12G18    29.86F
KILLEEN-SKYLRK PTSUNNY   88  67  49 S15       29.87F HX  91
FORT HOOD      CLOUDY    85  65  52 S15G23    29.84F
GATESVILLE     SUNNY     88  63  42 S17G23    29.88F
HAMILTON       MOSUNNY   86  63  46 S17G25    29.87F
LAMPASAS       MOSUNNY   84  66  53 S10G16    29.87F
$$

TXZ095>097-106>112-122>126-135>138-148>153-164>167-212100-
EAST TEXAS

CITY           SKY/WX    TMP DP  RH WIND       PRES   REMARKS
PARIS          PTSUNNY   83  67  58 S14       29.90F
SULPHUR SPRNGS CLOUDY    84  65  52 S13G20    29.91F
MOUNT PLEASANT MOSUNNY   85  67  54 S14       29.91F
GILMER         MOSUNNY   85  66  53 S13G20    29.91F
MINEOLA        MOSUNNY   84  68  58 SE12G17   29.89F
TYLER          MOSUNNY   86  65  49 S16G23    29.90F
LONGVIEW       PTSUNNY   88  68  51 S14       29.90F HX  91
MARSHALL       PTSUNNY   85  66  53 SE7G16    29.94F
ATHENS         MOSUNNY   86  64  48 S15       29.86F
PALESTINE      PTSUNNY   86  70  58 SE9       29.90F HX  91
JACKSONVILLE   MOSUNNY   85  69  57 SE10G17   29.94F
HENDERSON      PTSUNNY   87  67  50 S10G18    29.92F HX  90
CENTER         PTCLDY    90  70  50 S7        29.95F HX  95
NACOGDOCHES    PTSUNNY   86  73  65 SE10G16   29.93F HX  93
LUFKIN         MOSUNNY   85  71  63 S10       29.92F HX  90
$$

SUPPLEMENTAL OBSERVATIONS (NWS FORT WORTH AREA)

CITY           SKY/WX    TMP DP  RH WIND       PRES   REMARKS
DENISON DAM      N/A     81  64  57 S10         N/A
CADDO GRASSLND   N/A     82  64  54 S9G22       N/A
PAT MAYSE LAKE   N/A     81  68  65 SE17        N/A
GREENVILLE       N/A     84  64  51 S10G20      N/A
CEDAR HILL       N/A     88  64  45 S10G20      N/A
LBJ GRASSLAND    N/A     82  64  54 S14G22      N/A
POSSUM KINGDOM   N/A     84  66  54 S12         N/A
GRANBURY         N/A     86  64  48 S18G26      N/A
COMANCHE         N/A     86  63  45 S17G25      N/A
MCGREGOR         N/A     90  63  40 S12G25      N/A  HX  90
TEMPLE           N/A     88  64  45 S12G25      N/A
LAKE LIMESTONE   N/A     90  66  45 S15G24      N/A  HX  92
ATHENS           N/A     88  66  48 S15G23      N/A  HX  90
$$

SUPPLEMENTAL OBSERVATIONS (NWS NORMAN AREA)

CITY           SKY/WX    TMP DP  RH WIND       PRES   REMARKS
GOODLETT         N/A     85  54  33 SW7       29.75F
ODELL            N/A     84  64  49 S16       29.77F
CROWELL          N/A     88  58  36 SW10      29.76F
KNOX CITY        N/A     90  55  30 SW10G18   29.77F
SEYMOUR          N/A     86  62  44 S16G25    29.78S
MILLERS CREEK    N/A     86  64  48 S20G25      N/A
$$

SUPPLEMENTAL OBSERVATIONS (NWS SAN ANGELO AREA)

CITY           SKY/WX    TMP DP  RH WIND       PRES   REMARKS
WEINERT          N/A     88  61  40 SW12      29.78F
HASKELL          N/A     87  56  34 S15G23    29.79F
THROCKMORTON     N/A     85  65  51 S14       29.80F
STAMFORD         N/A     87  64  45 S17       29.80F
CLYDE            N/A     82  64  54 S17       29.85F
HAMBY            N/A     86  63  45 S20G26      N/A
IVIE RESERVOIR   N/A     84  63  48 S13G24      N/A
COLORADO BEND    N/A     84  61  45 S12G24      N/A
$$

SUPPLEMENTAL OBSERVATIONS (NWS SHREVEPORT AREA)

CITY           SKY/WX    TMP DP  RH WIND       PRES   REMARKS
CLARKSVILLE      N/A     82  63  51 S12         N/A
TEXARKANA        N/A     84  66  54 SE5G14      N/A
LINDEN           N/A     88  68  51 S5G13       N/A  HX  91
CADDO LAKE       N/A     90  68  48 SE6G15      N/A  HX  93
GILMER           N/A     88  66  48 S10G20      N/A  HX  90
HENDERSON        N/A     90  66  45 SW13        N/A  HX  92
LUFKIN           N/A     86  70  58 MISG        N/A  HX  90
N SABINE NF      N/A     84  73  70 MISG        N/A  HX  91
S SABINE NF      N/A     86  70  58 S5          N/A  HX  90
$$

SUPPLEMENTAL OBSERVATIONS ARE A COLLECTION OF AUTOMATED INSTRUMENTS
THAT ARE MAINTAINED BY A VARIETY OF FEDERAL AND STATE AGENCIES.
CERTAIN ELEMENTS...SUCH AS HUMIDITY VALUES AND SUSTAINED WIND
SPEEDS...MAY BE APPROXIMATED.





USA.gov is the U.S. government's official web portal to all federal, state and local government web resources and services.